Corbin, Kentucky, United States (40701)
Lat: 36.95N, Lon: 84.1W
Wx Zone: KYZ085
Local Info
Past Weather Observations for Today

NOTE: This archive is for the closest National Weather Service station to Corbin. Information may differ from the station used for current weather conditions.

Click here for Long-term Archive

Time Weather Temperature Dewpoint Humidity Pressure Winds Precip Visibility
14:53
Partly Cloudy
84°F / 29°C 61°F / 16°C 45% 30.15 in
(1021 mb)
SSW 9.2 mph
(SSW 15 kph)
- 10SM
13:53
Partly Cloudy
81°F / 27°C 61°F / 16°C 51% 30.18 in
(1022 mb)
SSW 6.9 mph
(SSW 11 kph)
- 10SM
12:53
Mostly Cloudy
82°F / 28°C 59°F / 15°C 45% 30.21 in
(1023 mb)
SSW 9.2 mph
(SSW 15 kph)
- 10SM
11:53
Mostly Cloudy
81°F / 27°C 61°F / 16°C 51% 30.21 in
(1023 mb)
SW 10.4 mph
(SW 17 kph)
- 10SM
10:53
Partly Cloudy
81°F / 27°C 63°F / 17°C 54% 30.21 in
(1023 mb)
S 8.1 mph
(S 13 kph)
- 10SM
09:53
Clear
79°F / 26°C 63°F / 17°C 58% 30.21 in
(1023 mb)
S 10.4 mph
(S 17 kph)
- 10SM
08:53
Partly Cloudy
75°F / 24°C 64°F / 18°C 69% 30.24 in
(1024 mb)
Calm - 10SM
07:53
Partly Cloudy
70°F / 21°C 63°F / 17°C 78% 30.21 in
(1023 mb)
SSE 4.6 mph
(SSE 7 kph)
- 10SM
06:53
Clear
66°F / 19°C 63°F / 17°C 88% 30.21 in
(1023 mb)
SSE 4.6 mph
(SSE 7 kph)
- 10SM
06:34
Partly Cloudy
66°F / 19°C 63°F / 17°C 88% 30.21 in
(1023 mb)
Calm - 8SM
06:26
Mostly Cloudy
Fog And Mist
66°F / 19°C 63°F / 17°C 88% 30.21 in
(1023 mb)
Calm - 2SM
05:53
Obscured
Fog
64°F / 18°C 61°F / 16°C 88% 30.21 in
(1023 mb)
Calm - 1/4SM
05:15
Obscured
Fog
64°F / 18°C 61°F / 16°C 88% 30.18 in
(1022 mb)
Calm - 1/2SM
04:53
Overcast
Fog And Mist
64°F / 18°C 61°F / 16°C 88% 30.18 in
(1022 mb)
Calm - 1SM
04:44
Overcast
Fog And Mist
64°F / 18°C 61°F / 16°C 88% 30.18 in
(1022 mb)
Calm - 1 1/4SM
03:53
Obscured
Fog
64°F / 18°C 61°F / 16°C 88% 30.15 in
(1021 mb)
Calm - 1/2SM
02:53
Obscured
Fog
64°F / 18°C 61°F / 16°C 88% 30.15 in
(1021 mb)
Calm - 1/4SM
02:37
Obscured
Fog And Mist
64°F / 18°C 61°F / 16°C 88% 30.15 in
(1021 mb)
Calm - 3/4SM
02:34
Partly Cloudy
Fog And Mist
64°F / 18°C 61°F / 16°C 88% 30.15 in
(1021 mb)
Calm - 1 3/4SM
01:53
Clear
Fog And Mist
66°F / 19°C 63°F / 17°C 88% 30.15 in
(1021 mb)
Calm - 4SM
01:43
Clear
Fog And Mist
66°F / 19°C 63°F / 17°C 88% 30.15 in
(1021 mb)
Calm - 3SM
01:40
Clear
Fog And Mist
66°F / 19°C 63°F / 17°C 88% 30.15 in
(1021 mb)
Calm - 1SM
01:25
Obscured
Hazy
66°F / 19°C 63°F / 17°C 88% 30.15 in
(1021 mb)
Calm - 3/4SM
01:21
Partly Cloudy
Fog And Mist
66°F / 19°C 63°F / 17°C 88% 30.15 in
(1021 mb)
Calm - 1 3/4SM
01:08
Clear
Fog And Mist
66°F / 19°C 63°F / 17°C 88% 30.15 in
(1021 mb)
E 3.5 mph
(E 6 kph)
- 2 1/2SM
00:53
Clear
Fog And Mist
66°F / 19°C 63°F / 17°C 88% 30.18 in
(1022 mb)
Calm - 4SM
Time Weather Temperature Dewpoint Humidity Pressure Winds Precip Visibility


Weather for websites

WeatherForYou.com, LLC is not responsible for any damages or problems caused by this service. Current weather conditions are obtained from the closest station including government and personal stations which may have varying degrees of accuracy. Weather forecasts are derived from the NOAA NDFD. Like all things, this site belongs to Jesus Christ... He just trusts us to maintain it. If you have any questions or comments email webmaster@weatherforyou.com

Copyright © 2015, WeatherForYou.com LLC. All rights reserved.